[[{"header":{"parameterUnit":"m.s-1","parameterCategory":1,"la1":30.2991,"la2":30.254,"lo1":-89.0895,"lo2":-89.0444,"dy":0.0017,"dx":0.0017,"nx":28,"ny":28,"refTime":"2024-10-12T09:00:00:Z","depth":0,"parameterNumber":2,"parameterNumberName":"U-component_of_WINDS"},"data":[0,0,0,0,0,0,0,0,0,0,0,0,0,0,0,0,0,0,0,0,0,0,0,0,0,0,0,0,0,0,0,0,0,0,0,0,0,0,0,0,0,0,0,0,0,0,0,0,0,0,0,0,0,0,0,0,0,0,-1.7259,-1.726,0,-1.7342,-1.7343,-1.7343,-1.73,-1.7298,-1.7295,-1.7293,-1.7378,-1.7382,-1.7386,0,0,0,0,0,0,0,0,0,0,0,0,0,-1.7063,-1.7067,-1.7259,-1.726,-1.7261,-1.7341,-1.7343,-1.7344,-1.73,-1.7298,-1.7295,-1.7292,-1.7376,-1.7382,-1.7387,0,0,0,0,0,0,0,0,0,0,0,0,0,-1.7147,-1.7068,-1.7259,-1.7249,-1.7249,-1.7341,-1.7343,-1.7344,-1.7301,-1.7297,-1.7294,-1.7291,-1.7375,-1.7381,-1.7387,-1.7494,0,0,-1.7407,-1.741,0,0,0,0,0,0,0,0,-1.7142,-1.7154,-1.7249,-1.725,-1.725,-1.7307,-1.7304,-1.7394,-1.7302,-1.7281,-1.7293,-1.7289,-1.7357,-1.7365,-1.7387,-1.7498,-1.7501,-1.7408,-1.7412,-1.7414,-1.7416,0,0,0,0,0,0,0,-1.7137,-1.7151,-1.7291,-1.7251,-1.7251,-1.724,-1.7249,-1.7321,-1.7337,-1.7283,-1.728,-1.729,-1.7356,-1.7381,-1.7389,-1.7503,-1.7408,-1.7413,-1.7417,-1.742,-1.7705,-1.7709,0,0,0,0,0,0,-1.7131,-1.7146,-1.7289,-1.7294,-1.7187,-1.7247,-1.7256,-1.7292,-1.7336,-1.7339,-1.7293,-1.7288,-1.7372,-1.7382,-1.7392,-1.752,-1.7414,-1.742,-1.7424,-1.7702,-1.7706,-1.771,0,0,0,0,0,0,-1.7127,-1.7145,-1.7286,-1.7219,-1.7236,-1.7254,-1.7294,-1.7295,-1.732,-1.7343,-1.7346,-1.7316,-1.737,-1.7383,-1.7469,-1.7522,-1.7423,-1.7429,-1.7697,-1.7703,-1.7708,-1.7777,0,0,0,0,0,0,-1.7122,-1.7143,-1.7184,-1.7221,-1.724,-1.7362,-1.7298,-1.7299,-1.7332,-1.7326,-1.7365,-1.7369,-1.7368,-1.746,-1.7475,-1.753,-1.7434,-1.7692,-1.77,-1.7706,-1.777,-1.7784,-1.7796,0,0,0,0,0,-1.7115,-1.72,-1.7186,-1.7204,-1.7291,-1.7365,-1.7376,-1.7373,-1.7336,-1.7377,-1.7392,-1.7367,-1.7514,-1.7469,-1.7486,-1.7543,-1.7689,-1.7698,-1.7706,-1.7764,-1.7781,-1.7796,0,0,0,0,0,0,-1.7169,-1.7205,-1.719,-1.7289,-1.7324,-1.7357,-1.7409,-1.7392,-1.7438,-1.7431,-1.7426,-1.7435,-1.7525,-1.7542,-1.7492,-1.7649,-1.7596,-1.7608,-1.7634,-1.7651,-1.7664,-1.7658,-1.744,0,0,0,0,0,-1.7193,-1.725,-1.7277,-1.7362,-1.7381,-1.7392,-1.7424,-1.7419,-1.7455,-1.747,-1.7491,-1.7527,-1.7581,-1.7617,-1.7667,-1.7772,-1.778,-1.782,-1.7833,-1.7844,-1.7854,-1.7912,-1.793,-1.7737,-1.7737,-1.7737,0,0,-1.7242,-1.7268,-1.7304,-1.7374,-1.74,-1.7459,-1.7405,-1.7469,-1.7513,-1.7479,-1.7562,-1.7579,-1.7619,-1.7715,-1.7758,-1.7732,-1.7909,-1.7854,-1.7863,-1.7868,-1.7922,-1.794,-1.7956,-1.7743,-1.7742,-1.7741,0,0,-1.7362,-1.7387,-1.7461,-1.7489,-1.753,-1.7537,-1.7555,-1.7591,-1.7601,-1.7684,-1.766,-1.7712,-1.7805,-1.7834,-1.7862,-1.7993,-1.7972,-1.801,-1.8079,-1.8134,-1.815,-1.8163,-1.8211,-1.8228,-1.802,-1.802,-1.802,0,-1.7418,-1.7506,-1.7501,-1.7568,-1.7599,-1.7572,-1.7647,-1.7674,-1.7729,-1.7752,-1.7722,-1.7839,-1.7863,-1.7966,-1.7998,-1.8021,-1.8041,-1.8005,-1.8148,-1.8161,-1.8174,-1.8219,-1.8237,-1.8025,-1.8024,-1.8024,-1.8023,0,-1.7573,-1.7634,-1.7689,-1.7744,-1.7781,-1.7852,-1.7858,-1.7896,-1.7888,-1.7898,-1.7983,-1.8012,-1.8069,-1.8093,-1.8085,-1.8195,-1.8178,-1.8148,-1.8095,-1.8196,-1.8239,-1.8256,-1.8031,-1.8029,-1.8028,-1.8027,0,0,-1.773,-1.7781,-1.7802,-1.7826,-1.787,-1.7917,-1.7986,-1.8042,-1.8075,-1.8114,-1.8172,-1.8252,-1.8225,-1.8256,-1.8251,-1.83,-1.8403,-1.8265,-1.8266,-1.829,-1.8527,-1.8549,-1.857,-1.839,-1.8393,-1.8395,-1.8524,0,-1.7853,-1.7975,-1.7973,-1.8085,-1.8142,-1.8117,-1.8177,-1.821,-1.8221,-1.8271,-1.8283,-1.834,-1.83,-1.8319,-1.8366,-1.8381,-1.8451,-1.8371,-1.8444,-1.8447,-1.8436,-1.8592,-1.8616,-1.8735,-1.854,-1.8543,-1.8545,0,-1.8014,-1.8059,-1.8177,-1.8212,-1.8236,-1.8291,-1.8342,-1.8389,-1.8426,-1.8431,-1.8466,-1.8454,-1.8524,-1.8469,-1.8566,-1.8512,-1.8541,-1.8553,-1.8558,-1.8565,-1.8503,-1.8604,-1.8773,-1.8792,-1.8571,-1.8569,-1.8567,0,-1.8117,-1.8207,-1.829,-1.8312,-1.8355,-1.8394,-1.8414,-1.8447,-1.8481,-1.8525,-1.8547,-1.8599,-1.8628,-1.8668,-1.8671,-1.863,-1.8769,-1.8713,-1.8775,-1.8775,-1.8806,-1.8805,-1.8984,-1.8824,-1.8824,-1.8824,-1.8823,0,-1.8256,-1.8329,-1.8337,-1.8388,-1.847,-1.8467,-1.8548,-1.8564,-1.8594,-1.8648,-1.8628,-1.8679,-1.8679,-1.8731,-1.8733,-1.8813,-1.8826,-1.8832,-1.8832,-1.8835,-1.8834,-1.8854,-1.8846,-1.8828,-1.8827,-1.8826,-1.8826,0,-1.8386,-1.8394,-1.8482,-1.8516,-1.8526,-1.8585,-1.8614,-1.8662,-1.8672,-1.874,-1.8756,-1.8771,-1.8831,-1.8837,-1.8906,-1.8908,-1.9005,-1.8996,-1.8993,-1.8992,-1.9054,-1.9048,-1.9253,-1.928,-1.9102,-1.9104,-1.9105,0,-1.8474,-1.853,-1.857,-1.8605,-1.8627,-1.8683,-1.8717,-1.8716,-1.8752,-1.8799,-1.8842,-1.89,-1.8947,-1.9044,-1.9061,-1.9114,-1.9106,-1.9174,-1.9114,-1.9115,-1.9108,-1.9105,-1.9111,-1.9186,-1.9188,-1.919,-1.9191,0,-1.863,-1.8631,-1.8682,-1.8734,-1.8775,-1.8816,-1.8854,-1.8884,-1.8887,-1.893,-1.8991,-1.9027,-1.9098,-1.9156,-1.9209,-1.9229,-1.9211,-1.921,-1.9227,-1.923,-1.9227,-1.923,-1.9026,-1.9205,-1.9204,-1.9203,-1.9202,-1.9201,-1.8742,-1.8791,-1.8827,-1.8884,-1.8913,-1.8949,-1.8997,-1.9012,-1.9063,-1.9121,-1.9117,-1.9185,-1.9221,-1.9289,-1.9313,-1.9366,-1.9344,-1.9368,-1.9375,-1.9381,-1.9388,-1.9218,-1.9376,-1.9375,-1.9375,-1.9375,-1.9374,0,-1.8898,-1.892,-1.8972,-1.9027,-1.9072,-1.9051,-1.9092,-1.9131,-1.9191,-1.9226,-1.9272,-1.9342,-1.9399,-1.942,-1.9475,-1.9514,-1.9507,-1.9528,-1.9526,-1.9531,-1.9405,-1.9385,-1.9533,-1.9533,-1.9533,-1.9533,-1.9533,-1.9533,-1.8985,-1.9067,-1.9072,-1.9168,-1.9189,-1.9256,-1.9281,-1.9315,-1.9343,-1.9422,-1.9469,-1.9483,-1.9512,-1.9569,-1.962,-1.9625,-1.9647,-1.9672,-1.9673,-1.9555,-1.954,-1.9524,-1.9505,-1.9676,-1.9676,-1.9795,-1.9796,-1.9797]},{"header":{"parameterUnit":"m.s-1","parameterCategory":1,"la1":30.2991,"la2":30.254,"lo1":-89.0895,"lo2":-89.0444,"dy":0.0017,"dx":0.0017,"nx":28,"ny":28,"refTime":"2024-10-12T09:00:00:Z","depth":0,"parameterNumber":3,"parameterNumberName":"V-component_of_WINDS"},"data":[0,0,0,0,0,0,0,0,0,0,0,0,0,0,0,0,0,0,0,0,0,0,0,0,0,0,0,0,0,0,0,0,0,0,0,0,0,0,0,0,0,0,0,0,0,0,0,0,0,0,0,0,0,0,0,0,0,0,-2.7597,-2.7597,0,-2.7627,-2.7628,-2.7628,-2.7585,-2.7584,-2.7582,-2.7581,-2.761,-2.7613,-2.7615,0,0,0,0,0,0,0,0,0,0,0,0,0,-2.7498,-2.75,-2.7597,-2.7597,-2.7597,-2.7627,-2.7628,-2.7628,-2.7586,-2.7584,-2.7582,-2.758,-2.761,-2.7612,-2.7615,0,0,0,0,0,0,0,0,0,0,0,0,0,-2.7536,-2.7501,-2.7596,-2.758,-2.7579,-2.7627,-2.7628,-2.7628,-2.7586,-2.7584,-2.7582,-2.7579,-2.7609,-2.7612,-2.7615,-2.7681,0,0,-2.7625,-2.7627,0,0,0,0,0,0,0,0,-2.7534,-2.754,-2.7582,-2.7581,-2.758,-2.76,-2.7604,-2.7646,-2.7587,-2.7583,-2.7581,-2.7578,-2.7609,-2.7612,-2.7623,-2.7682,-2.7683,-2.7626,-2.7628,-2.7629,-2.763,0,0,0,0,0,0,0,-2.7531,-2.7538,-2.7609,-2.7583,-2.7581,-2.757,-2.7573,-2.7611,-2.7608,-2.7583,-2.758,-2.7585,-2.7608,-2.7619,-2.7623,-2.7684,-2.7625,-2.7628,-2.763,-2.7632,-2.7797,-2.7799,0,0,0,0,0,0,-2.7531,-2.7536,-2.7608,-2.7609,-2.7551,-2.7573,-2.7577,-2.7596,-2.7608,-2.7607,-2.7587,-2.7583,-2.7615,-2.7619,-2.7624,-2.77,-2.7629,-2.7632,-2.7634,-2.7795,-2.7797,-2.78,0,0,0,0,0,0,-2.7529,-2.7538,-2.7606,-2.7572,-2.758,-2.7578,-2.76,-2.7598,-2.7609,-2.761,-2.7609,-2.7599,-2.7613,-2.7619,-2.7667,-2.7701,-2.7634,-2.7636,-2.7792,-2.7795,-2.7799,-2.7854,0,0,0,0,0,0,-2.7527,-2.7538,-2.7563,-2.7573,-2.7582,-2.765,-2.7602,-2.76,-2.7615,-2.7611,-2.7622,-2.7622,-2.7612,-2.7662,-2.767,-2.7704,-2.7639,-2.7789,-2.7793,-2.7798,-2.7849,-2.7859,-2.7868,0,0,0,0,0,-2.7523,-2.7578,-2.7565,-2.7574,-2.7614,-2.7652,-2.7657,-2.7645,-2.7618,-2.7644,-2.7644,-2.7621,-2.7696,-2.7667,-2.7676,-2.7711,-2.7786,-2.7792,-2.7797,-2.7845,-2.7857,-2.7868,0,0,0,0,0,0,-2.7571,-2.7579,-2.7564,-2.7624,-2.7638,-2.7645,-2.7676,-2.7659,-2.768,-2.7675,-2.7659,-2.7662,-2.7712,-2.7716,-2.7685,-2.7774,-2.7736,-2.7744,-2.777,-2.7781,-2.7791,-2.7788,-2.7642,0,0,0,0,0,-2.7589,-2.762,-2.7624,-2.7676,-2.7684,-2.7679,-2.7695,-2.7685,-2.7698,-2.7704,-2.7707,-2.7721,-2.7747,-2.7764,-2.7789,-2.785,-2.7851,-2.7878,-2.7887,-2.7895,-2.7902,-2.7933,-2.7945,-2.7818,-2.7818,-2.7818,0,0,-2.7626,-2.7633,-2.7654,-2.7686,-2.7695,-2.7727,-2.7684,-2.7719,-2.7742,-2.7709,-2.7754,-2.7757,-2.777,-2.7825,-2.7849,-2.783,-2.7937,-2.7902,-2.7908,-2.791,-2.794,-2.7952,-2.7962,-2.7822,-2.7821,-2.782,0,0,-2.7708,-2.7718,-2.7761,-2.7771,-2.7786,-2.7783,-2.7793,-2.7803,-2.7804,-2.7849,-2.7824,-2.785,-2.7896,-2.7906,-2.7918,-2.8003,-2.7982,-2.8011,-2.8059,-2.809,-2.81,-2.8108,-2.8138,-2.8149,-2.8017,-2.8018,-2.8018,0,-2.7751,-2.7798,-2.7786,-2.7822,-2.7837,-2.7808,-2.7851,-2.7862,-2.7884,-2.7894,-2.7872,-2.7928,-2.7935,-2.7991,-2.8012,-2.8022,-2.8033,-2.801,-2.81,-2.8108,-2.8116,-2.8144,-2.8155,-2.8021,-2.8021,-2.802,-2.802,0,-2.785,-2.7883,-2.7916,-2.7939,-2.7956,-2.7996,-2.7988,-2.8008,-2.7996,-2.7994,-2.8039,-2.8047,-2.8072,-2.8084,-2.8073,-2.8138,-2.8126,-2.8102,-2.8064,-2.8132,-2.8157,-2.8168,-2.8026,-2.8024,-2.8024,-2.8023,0,0,-2.7965,-2.7979,-2.7991,-2.8,-2.8014,-2.8038,-2.8076,-2.8101,-2.8117,-2.8133,-2.8164,-2.8203,-2.8181,-2.8193,-2.8183,-2.821,-2.8275,-2.8183,-2.8183,-2.8199,-2.8346,-2.8363,-2.8376,-2.8262,-2.8264,-2.8265,-2.8345,0,-2.8046,-2.8113,-2.8101,-2.8165,-2.8194,-2.8167,-2.82,-2.8211,-2.821,-2.8234,-2.8233,-2.826,-2.823,-2.8237,-2.8263,-2.8262,-2.8304,-2.8256,-2.8289,-2.8291,-2.8286,-2.839,-2.8408,-2.8483,-2.8355,-2.8357,-2.8358,0,-2.8151,-2.817,-2.8237,-2.8245,-2.8257,-2.8287,-2.8308,-2.8331,-2.8343,-2.834,-2.8354,-2.8338,-2.8375,-2.8336,-2.8385,-2.8352,-2.8365,-2.8367,-2.8369,-2.8371,-2.8328,-2.8394,-2.8506,-2.8517,-2.8374,-2.8372,-2.8371,0,-2.8226,-2.8269,-2.8315,-2.8323,-2.8334,-2.8355,-2.8361,-2.837,-2.8385,-2.8403,-2.8413,-2.8434,-2.8446,-2.8463,-2.8453,-2.8426,-2.8504,-2.8464,-2.8501,-2.8502,-2.8519,-2.8518,-2.8634,-2.8528,-2.8528,-2.8528,-2.8528,0,-2.8318,-2.836,-2.8349,-2.8376,-2.8422,-2.8408,-2.8453,-2.8455,-2.8463,-2.849,-2.8468,-2.8493,-2.8478,-2.8502,-2.8495,-2.8536,-2.8542,-2.854,-2.8537,-2.8541,-2.8542,-2.8549,-2.8544,-2.8531,-2.853,-2.853,-2.8529,0,-2.8411,-2.8405,-2.8452,-2.8458,-2.846,-2.8494,-2.8498,-2.8523,-2.852,-2.8554,-2.8561,-2.8557,-2.8583,-2.8575,-2.8604,-2.8599,-2.8651,-2.8642,-2.8647,-2.8645,-2.8682,-2.8679,-2.8807,-2.8823,-2.8707,-2.8708,-2.8709,0,-2.847,-2.8501,-2.851,-2.8527,-2.8534,-2.8561,-2.8576,-2.8563,-2.8579,-2.8594,-2.8618,-2.8643,-2.8662,-2.8706,-2.8704,-2.8726,-2.8717,-2.876,-2.872,-2.8723,-2.8717,-2.8715,-2.8717,-2.8769,-2.877,-2.8771,-2.8772,0,-2.8575,-2.857,-2.8593,-2.8615,-2.8633,-2.865,-2.8664,-2.8678,-2.8666,-2.8686,-2.8713,-2.8728,-2.8757,-2.8782,-2.8801,-2.8806,-2.8787,-2.8785,-2.8794,-2.8799,-2.88,-2.8799,-2.8668,-2.8782,-2.8781,-2.878,-2.8779,-2.8779,-2.8652,-2.8678,-2.8688,-2.8714,-2.8723,-2.8737,-2.876,-2.876,-2.8783,-2.8806,-2.8797,-2.8828,-2.8837,-2.8861,-2.8868,-2.8892,-2.8875,-2.8889,-2.8893,-2.8896,-2.8901,-2.8797,-2.8895,-2.8895,-2.8895,-2.8895,-2.8894,0,-2.8755,-2.876,-2.8784,-2.8804,-2.8824,-2.8805,-2.8819,-2.8837,-2.8865,-2.8875,-2.8895,-2.8925,-2.8949,-2.8949,-2.8971,-2.8989,-2.8981,-2.8996,-2.8994,-2.8995,-2.8915,-2.8904,-2.9002,-2.9002,-2.9002,-2.9002,-2.9002,-2.9002,-2.8811,-2.8854,-2.885,-2.8896,-2.8901,-2.8931,-2.8941,-2.8953,-2.8961,-2.8997,-2.9016,-2.9016,-2.9022,-2.9044,-2.9064,-2.9064,-2.9072,-2.909,-2.9086,-2.9011,-2.9001,-2.899,-2.898,-2.9092,-2.9092,-2.9164,-2.9164,-2.9165]}]]